Regional Weather Roundup
Issued by NWS

Home | Current Version | Previous Version | Text Only | Print | Product List | Glossary Off
Versions: 1 2 3 4 5 6 7 8 9 10 11 12 13 14 15 16 17 18 19 20 21 22 23 24 25 26 27 28 29 30 31 32 33 34 35 36 37 38 39 40 41 42 43 44 45 46 47 48 49 50

219
ASUS44 KLIX 280405
RWRLA
LOUISIANA WEATHER ROUNDUP
NATIONAL WEATHER SERVICE NEW ORLEANS LA
1100 PM CDT WED AUG 27 2014

NOTE: "FAIR" INDICATES FEW OR NO CLOUDS BELOW 12,000 FEET WITH NO
      SIGNIFICANT WEATHER AND/OR OBSTRUCTIONS TO VISIBILITY.
      SKY/WX - SKY CONDITION AND SIGNIFICANT WEATHER.
      TMP - AIR TEMPERATURE.    DP   - DEWPOINT TEMPERATURE.
      RH  - RELATIVE HUMIDITY.  PRES - PRESSURE.
      HX  - HEAT INDEX.         WCI  - WIND CHILL INDEX.

*  THESE STATIONS ARE NOT NWS OR FAA STATIONS AND ARE NOT UNDER
   NWS QUALITY CONTROL.

LAZ040-048-061>063-065-066-069-280500-
SOUTHEAST LOUISIANA

CITY           SKY/WX    TMP DP  RH WIND       PRES   REMARKS
N.O. AUDUBON   NOT AVBL
N.O. INTL ARPT MOCLDY    82  74  76 SE5       29.99S
N.O. LAKEFRONT MOCLDY    82  76  81 SE5       30.00S
N.O. DOWNTOWN* FAIR      82  72  69 CALM      30.00S
SLIDELL        MOCLDY    77  74  90 CALM      30.00S
BATON ROUGE    PTCLDY    78  74  87 NE3       29.99S
BOOTHVILLE     PTCLDY    82  76  81 SE5       29.99S
BELLE CHASSE   CLOUDY    78  74  87 CALM      29.99R
BOGALUSA*        N/A     78  74  88 CALM      30.02S
GALLIANO*      NOT AVBL
NEW ROADS*     FAIR      76  75  96 N3        30.00R
GONZALES*      FAIR      78  78 100 CALM      29.99R
HAMMOND*       PTCLDY    79  73  83 CALM      30.02S
HOUMA*         MOCLDY    76  72  86 CALM      29.99S
PORT FOURCHON* CLEAR     84  75  74 SE10      30.00S

$$

LAZ041-044-053-054-280500-
SOUTHWEST LOUISIANA

CITY           SKY/WX    TMP DP  RH WIND       PRES   REMARKS
LAKE CHARLES   MOCLDY    78  74  87 SE3       29.98S
LAFAYETTE      PTCLDY    78  74  87 CALM      29.99S
PATTERSON        N/A     77  75  94 E5        30.01S
SALT POINT       N/A     81  78  91 CALM      29.98S
NEW IBERIA     MOCLDY    78  75  90 CALM      29.99S
CHENAULT AIRPK PTCLDY    78  73  84 CALM      29.99S

$$

LAZ027-028-280500-
CENTRAL LOUISIANA

CITY           SKY/WX    TMP DP  RH WIND       PRES   REMARKS
FORT POLK      CLEAR     78  72  81 CALM      30.00R
ALEXANDRIA INT MOCLDY    79  74  84 S3        29.98R
ALEXANDRIA     PTCLDY    78  74  87 CALM      30.00R

$$

LAZ001-002-280500-
NORTHWEST LOUISIANA

CITY           SKY/WX    TMP DP  RH WIND       PRES   REMARKS
SHREVEPORT     PTCLDY    80  66  62 CALM      29.99S
BARKSDALE AFB  CLEAR     77  67  70 CALM      30.00R
DTN SHREVEPORT CLEAR     76  68  76 CALM      30.00R

$$

LAZ014-016-280500-
NORTHEAST LOUISIANA

CITY           SKY/WX    TMP DP  RH WIND       PRES   REMARKS
MONROE         CLEAR     75  71  87 CALM      30.01S
TALLULAH       CLEAR     70  68  93 N3        30.01R

$$




USA.gov is the U.S. government's official web portal to all federal, state and local government web resources and services.